Location: Jihlava
(49.4000°N, 15.5830°E)
Time: 01:52:25
(UTC+01:00)

ISS - Visible Passes

Search period start: 21 November 2017 00:00
Search period end: 01 December 2017 00:00
Orbit: 402 x 407 km, 51.6° (Epoch: 21 November)

Date Brightness Start Highest point End Pass type
(mag) Time Alt. Az. Time Alt. Az. Time Alt. Az.
28 Nov -1.9 18:16:15 10° SSW 18:17:53 21° S 18:17:53 21° S visible
29 Nov -1.9 17:24:41 10° S 17:26:54 17° SE 17:27:47 16° ESE visible
29 Nov -0.9 18:59:41 10° WSW 19:00:27 16° WSW 19:00:27 16° WSW visible
30 Nov -3.2 18:07:27 10° SW 18:10:17 46° S 18:10:17 46° S visible
